EDT,Max TemperatureF,Mean TemperatureF,Min TemperatureF,Max Dew PointF,MeanDew PointF,Min DewpointF,Max Humidity, Mean Humidity, Min Humidity, Max Sea Level PressureIn, Mean Sea Level PressureIn, Min Sea Level PressureIn, Max VisibilityMiles, Mean VisibilityMiles, Min VisibilityMiles, Max Wind SpeedMPH, Mean Wind SpeedMPH, Max Gust SpeedMPH,PrecipitationIn, CloudCover, Events, WindDirDegrees
2011-9-1,91,82,73,81,74,70,100,79,49,30.10,30.06,30.02,10,8,1,15,3,18,0.45,5,Rain,54
2011-9-2,91,81,71,75,70,66,100,72,43,30.04,30.00,29.94,10,7,0,13,4,17,0.00,5,Fog-Rain,56
2011-9-3,93,78,62,75,65,63,100,70,38,30.00,29.94,29.89,10,9,7,12,3,,0.00,4,,98
2011-9-4,91,81,71,79,73,68,100,84,52,29.95,29.91,29.87,10,8,3,17,2,22,0.00,2,,129
2011-9-5,93,83,73,77,74,72,100,79,49,29.98,29.86,29.80,15,9,4,21,5,26,0.00,2,,173
2011-9-6,84,78,73,81,76,73,100,96,70,29.96,29.88,29.81,12,9,2,17,8,23,0.00,2,Rain-Thunderstorm,178
2011-9-7,91,81,71,75,74,72,100,91,52,29.98,29.94,29.90,15,8,2,14,2,,0.38,3,Rain-Thunderstorm,277
2011-9-8,87,79,71,75,70,66,100,73,55,29.98,29.94,29.91,15,9,5,8,2,16,0.00,4,Rain,271
2011-9-9,91,81,71,77,69,63,100,82,52,30.00,29.96,29.91,12,9,1,15,1,18,0.38,3,Rain-Thunderstorm,267
2011-9-10,93,81,69,82,72,70,100,64,46,30.02,29.99,29.96,10,8,5,12,1,,0.00,2,Thunderstorm,284
2011-9-11,96,82,69,82,72,68,100,63,41,30.09,30.04,30.01,10,8,4,7,0,,0.00,2,,249
2011-9-12,95,84,73,75,67,57,100,69,31,30.11,30.04,29.99,15,10,7,9,1,,0.00,2,Rain,335
2011-9-13,93,81,69,75,66,57,100,71,30,30.06,29.99,29.94,15,10,6,8,2,,0.00,1,,58
2011-9-14,93,80,66,73,66,57,100,71,30,30.00,29.95,29.91,12,9,5,8,2,,0.00,1,,37
2011-9-15,95,80,66,72,67,63,100,73,34,30.04,29.98,29.95,12,9,6,8,1,,0.00,1,,301
2011-9-16,98,82,66,72,67,61,100,71,30,30.10,30.05,30.02,12,8,5,9,1,,0.00,2,,65
2011-9-17,93,81,69,79,69,61,100,71,34,30.13,30.08,30.03,10,9,5,12,2,,0.00,3,,50
2011-9-18,89,81,73,81,73,70,100,84,52,30.12,30.08,30.02,10,8,0,15,7,17,2.52,3,Rain-Thunderstorm,23
2011-9-19,93,83,73,79,72,64,100,80,38,30.07,30.01,29.94,12,9,5,16,6,20,0.00,5,Thunderstorm,44
2011-9-20,93,82,71,77,72,66,100,73,43,30.04,29.98,29.94,15,10,7,15,3,,0.00,5,Thunderstorm,94
2011-9-21,95,84,73,81,74,70,100,85,44,30.07,30.01,29.98,15,10,2,14,3,25,0.09,2,Rain-Thunderstorm,83
2011-9-22,93,83,73,75,74,72,100,83,49,30.07,30.02,29.97,15,9,5,13,4,17,0.03,2,Rain-Thunderstorm,87
2011-9-23,91,81,71,79,75,72,100,83,52,30.03,29.96,29.91,15,9,2,13,2,,0.17,2,Rain-Thunderstorm,138
2011-9-24,96,82,69,75,71,66,74,53,37,29.97,29.93,29.87,10,8,0,13,2,,0.00,1,Fog,283
2011-9-25,93,82,71,81,73,72,100,71,49,29.99,29.94,29.90,10,9,4,13,1,18,0.00,1,Thunderstorm,224
2011-9-26,87,79,71,75,72,68,100,85,58,29.99,29.94,29.90,12,10,7,12,2,,0.01,3,Rain-Thunderstorm,164
2011-9-27,91,80,69,77,73,70,100,80,49,29.99,29.94,29.90,15,10,5,12,2,16,0.00,3,Thunderstorm,162
2011-9-28,96,84,71,79,71,66,100,60,37,29.96,29.93,29.86,15,9,4,7,1,,0.00,1,,321
2011-9-29,96,82,69,73,71,66,100,79,37,29.92,29.86,29.80,15,10,7,13,1,18,0.00,3,Thunderstorm,282
2011-9-30,91,80,68,72,67,63,100,75,38,29.90,29.83,29.60,15,10,8,13,2,16,0.00,5,,303